This is the latest recevied weather packets stored in our database for station/object KC3JUG-13. If no packets are shown the sender has not sent any weather packets the latest 10 day(s).
| Time | Temp. | Humidity | Pressure | Rain* | Wind** | Luminosity | Snow |
|---|---|---|---|---|---|---|---|
| 1788324029 | 20.56° C | 99% | 1018.8 hPa | 0.25 mm | - | - | - |
| 1788323249 | 20.56° C | 99% | 1019 hPa | 0.25 mm | - | - | - |
| 1788322469 | 20.56° C | 99% | 1019.3 hPa | 0.25 mm | - | - | - |
| 1788321689 | 20.56° C | 99% | 1019.3 hPa | 0.25 mm | - | - | - |
| 1788320909 | 20.56° C | 99% | 1019.5 hPa | 0 mm | - | - | - |
| 1788320129 | 20.56° C | 99% | 1018.9 hPa | 0 mm | - | - | - |
| 1788319349 | 20.56° C | 99% | 1018.6 hPa | 0 mm | - | - | - |
| 1788318569 | 20.56° C | 99% | 1017.7 hPa | 0 mm | - | - | - |
| 1788317789 | 20.56° C | 99% | 1017.7 hPa | 0 mm | - | - | - |
| 1788317009 | 20.56° C | 99% | 1016.7 hPa | 0.25 mm | - | - | - |
| 1788316229 | 20.56° C | 98% | 1016.3 hPa | 0.51 mm | - | - | - |
| 1788315563 | 20.56° C | 98% | 1016.7 hPa | 0.51 mm | - | - | - |
| 1788315449 | 20.56° C | 98% | 1016.7 hPa | 0.51 mm | - | - | - |
| 1788314669 | 20.56° C | 98% | 1016.9 hPa | 0.51 mm | - | - | - |
| 1788313908 | 20.56° C | 98% | 1016.8 hPa | 0.25 mm | - | - | - |
| 1788313141 | 20.56° C | 98% | 1017.3 hPa | 0 mm | - | - | - |
| 1788313109 | 20.56° C | 98% | 1017.3 hPa | 0 mm | - | - | - |
| 1788312329 | 20.56° C | 97% | 1016.6 hPa | 0 mm | - | - | - |
| 1788311549 | 20.56° C | 97% | 1016.5 hPa | 0 mm | - | - | - |
| 1788310769 | 20.56° C | 96% | 1016 hPa | 1.02 mm | - | - | - |
| 1788309989 | 20.56° C | 96% | 1016.6 hPa | 14.48 mm | - | - | - |
| 1788309209 | 21.11° C | 95% | 1016.4 hPa | 24.38 mm | - | - | - |
| 1788308429 | 21.67° C | 95% | 1016.3 hPa | 24.38 mm | - | - | - |
| 1788307650 | 22.22° C | 94% | 1016.3 hPa | 24.13 mm | - | - | - |
| 1788306870 | 22.78° C | 91% | 1016.2 hPa | 22.86 mm | - | - | - |
* Rain latest hour (hover to see other rain measurements)
** Current wind speed in m/s (hover to see current wind gust speed)